www.pogodaiklimat.ru

Погода и климат >> Архив погоды >> Австралия >> Birdsville Airport


ПОГОДА в Birdsville Airport

  • Прогноз погоды в Birdsville Airport
  • Монитор погоды в Birdsville Airport
  • Климат города

АРХИВ ПОГОДЫ в Birdsville Airport

Время (UTC), дата Ветер
(напр.,м/с)
 
Видим.   Явления Облачность Т
(С)
Тd
(С)
f
(%)
Тe
(С)
Тes
(С)
Комфортность P
(гПа)
Po
(гПа)
Тmin
(С)
Tmax
(С)
R
(мм)
R24
(мм)
S
(см)
05 17.05 С 10 н/о н/о +33.2 +6.5 19 +31 +31 жарко 1008.3 1002.8
06 17.05 С 10 н/о н/о +33.4 +6.6 19 +31 +31 жарко 1008.0 1002.5
08 17.05 ЮЗ 7 н/о н/о +25.9 +5.5 27 +25 +25 комфорт 1009.9 1004.4
09 17.05 Ю 10 н/о н/о +20.4 +11.9 58 +22 +22 комфорт 1010.4 1004.9
11 17.05 ЮЗ 5 н/о {туман} н/о +19.4 +13.1 67 +21 +21 комфорт 1011.5 1006.0
12 17.05 З 5 н/о н/о +17.4 +15.0 86 +17 +17 1014.6 1009.1
14 17.05 Ю 5 н/о {туман} н/о +17.0 +13.5 80 +16 +16 1011.0 1005.5 +34.6
15 17.05 Ю 8 н/о н/о +16.6 +12.9 79 +15 +15 1014.3 1008.8
17 17.05 Ю 5 н/о в посл. час дождь {туман} н/о +15.7 +13.7 88 +14 +14 1014.1 1008.6
18 17.05 ЮВ 6 н/о н/о +15.6 +14.3 92 +14 +14 1013.0 1007.5
20 17.05 ЮВ 5 н/о {туман} н/о +16.3 +15.0 92 +15 +15 1013.4 1007.9
21 17.05 Ю 3 н/о н/о +15.7 +15.1 96 +15 +15 1014.4 1008.9
23 17.05 ЮВ 4 н/о {туман} н/о +16.2 +15.7 97 +16 +16 1015.8 1010.3
00 18.05 ЮВ 5 н/о н/о +17.3 +16.2 93 +17 +17 1016.3 1010.7
02 18.05 ЮВ 5 н/о н/о +20.7 +17.1 80 +24 +24 комфорт 1015.4 1009.9 +15.5
03 18.05 ЮВ 7 н/о н/о +21.1 +16.7 76 +25 +25 комфорт 1014.6 1009.1
05 18.05 ЮВ 6 н/о н/о +21.9 +16.0 69 +26 +26 душно 1014.2 1008.7
06 18.05 ЮВ 5 н/о н/о +22.2 +16.2 69 +26 +26 душно 1014.3 1008.8
08 18.05 Ю 4 н/о н/о +21.1 +15.4 70 +24 +24 комфорт 1015.2 1009.7
09 18.05 Ю 3 н/о н/о +19.6 +15.9 79 +22 +22 комфорт 1015.7 1010.2
11 18.05 Ю 2 н/о н/о +17.7 +15.5 87 +18 +18 1016.8 1011.2
12 18.05 Ю 3 н/о н/о +17.1 +15.4 90 +17 +17 1017.2 1011.6
14 18.05 Ю 3 н/о н/о +15.4 +14.6 95 +15 +15 1017.1 1011.5 +22.7
15 18.05 Ю 3 н/о н/о +14.6 +14.4 99 +14 +14 1017.0 1011.4
17 18.05 ЮЗ 1 н/о н/о +13.8 +13.8 100 +14 +14 1016.4 1010.8
18 18.05 ЮЗ 2 н/о н/о +13.0 +13.0 100 +12 +12 1016.4 1010.8
20 18.05 ЮЗ 2 н/о н/о +12.3 +12.3 100 +11 +11 1017.3 1011.7
21 18.05 штиль 0 н/о н/о +11.8 +11.8 100 +11 +11 1017.7 1012.1
23 18.05 В 1 н/о {туман} н/о +13.0 +13.0 100 +13 +13 1018.7 1013.1
00 19.05 штиль 0 н/о н/о +17.4 +15.9 91 +17 +17 1018.8 1013.2
02 19.05 З 2 н/о н/о +21.1 +14.0 64 +24 +24 комфорт 1017.4 1011.8 +10.8
03 19.05 СЗ 2 н/о н/о +22.7 +9.5 43 +24 +24 комфорт 1016.2 1010.6
05 19.05 З 5 н/о н/о +23.8 +9.0 39 +25 +25 комфорт 1014.1 1008.6
06 19.05 З 5 н/о н/о +23.6 +7.7 36 +24 +24 комфорт 1014.0 1008.5
08 19.05 ЮЗ 5 н/о н/о +22.0 +8.2 41 +23 +23 комфорт 1014.5 1009.0
09 19.05 ЮЗ 3 н/о н/о +19.6 +9.5 52 +21 +21 комфорт 1015.3 1009.8
11 19.05 ЮЗ 3 н/о н/о +17.5 +9.9 61 +18 +18 1016.4 1010.8
12 19.05 ЮЗ 2 н/о н/о +17.0 +9.7 62 +17 +17 1016.4 1010.8
14 19.05 ЮЗ 3 н/о н/о +16.0 +9.2 64 +16 +16 1016.5 1010.9 +24.6
15 19.05 ЮЗ 2 н/о н/о +14.1 +9.7 75 +14 +14 1016.2 1010.6
17 19.05 ЮЗ 3 н/о н/о +13.2 +9.3 77 +12 +12 1015.7 1010.2
18 19.05 ЮЗ 3 н/о н/о +13.3 +9.0 75 +12 +12 1015.6 1010.1
20 19.05 ЮЗ 2 н/о н/о +11.6 +9.2 85 +11 +11 1015.8 1010.3
21 19.05 штиль 0 н/о н/о +10.8 +8.6 86 +10 +10 1016.5 1010.9
23 19.05 ЮВ 2 н/о н/о +16.4 +10.9 70 +17 +17 1017.6 1012.0
00 20.05 В 2 н/о н/о +18.3 +9.9 58 +19 +19 1017.9 1012.3
02 20.05 В 1 н/о н/о +22.8 +8.5 40 +24 +24 комфорт 1017.3 1011.7 +10.8
03 20.05 В 4 н/о н/о +23.0 +6.7 35 +24 +24 комфорт 1016.3 1010.7
05 20.05 ЮВ 5 н/о н/о +24.1 +6.8 33 +24 +24 комфорт 1015.0 1009.5
06 20.05 Ю 4 н/о н/о +23.9 +6.7 33 +24 +24 комфорт 1015.0 1009.5
08 20.05 ЮВ 3 н/о н/о +22.2 +7.2 38 +23 +23 комфорт 1015.4 1009.9
09 20.05 ЮВ 3 н/о н/о +20.3 +8.3 46 +22 +22 комфорт 1016.0 1010.5
11 20.05 ЮВ 3 н/о н/о +18.4 +8.7 53 +19 +19 1017.2 1011.6
12 20.05 ЮВ 2 н/о н/о +17.5 +8.9 57 +18 +18 1017.7 1012.1
14 20.05 ЮВ 2 н/о н/о +16.8 +9.0 60 +17 +17 1017.3 1011.7 +24.6
15 20.05 ЮВ 1 н/о н/о +14.6 +9.6 72 +16 +16 1017.2 1011.6
17 20.05 штиль 0 н/о н/о +13.6 +9.1 74 +13 +13 1016.9 1011.3
18 20.05 В 2 н/о н/о +12.9 +9.9 82 +12 +12 1016.7 1011.1
20 20.05 ЮВ 2 н/о н/о +12.0 +9.0 82 +11 +11 1016.6 1011.0
21 20.05 В 2 н/о н/о +11.6 +8.5 81 +11 +11 1017.2 1011.6
23 20.05 ЮВ 2 н/о н/о +15.3 +9.2 67 +15 +15 1018.6 1013.0
00 21.05 ЮВ 4 н/о н/о +20.9 +10.1 50 +23 +23 комфорт 1018.7 1013.1
02 21.05 В 4 н/о н/о +23.8 +7.8 36 +24 +24 комфорт 1017.7 1012.1 +11.1
03 21.05 В 5 н/о н/о +24.3 +7.9 35 +25 +25 комфорт 1016.8 1011.2
05 21.05 В 5 н/о н/о +25.5 +8.5 34 +26 +26 жарко 1015.1 1009.6
06 21.05 ЮВ 4 н/о н/о +26.2 +8.7 33 +26 +26 жарко 1014.9 1009.4
08 21.05 ЮВ 3 н/о н/о +24.3 +8.7 37 +25 +25 комфорт 1015.2 1009.7
09 21.05 Ю 3 н/о н/о +21.9 +9.4 45 +23 +23 комфорт 1015.6 1010.1
11 21.05 Ю 4 н/о н/о +19.8 +9.4 51 +21 +21 комфорт 1016.6 1011.0
12 21.05 Ю 3 н/о н/о +18.4 +8.9 54 +19 +19 1016.9 1011.3
14 21.05 Ю 3 н/о н/о +16.7 +9.1 61 +17 +17 1016.9 1011.3 +26.5
15 21.05 Ю 3 н/о н/о +15.9 +8.9 63 +16 +16 1016.5 1010.9
17 21.05 ЮВ 2 н/о н/о +14.2 +8.6 69 +14 +14 1016.0 1010.5
18 21.05 ЮВ 3 н/о н/о +13.5 +8.4 71 +13 +13 1015.6 1010.1
20 21.05 ЮВ 2 н/о н/о +12.4 +8.3 76 +12 +12 1016.7 1011.1
21 21.05 ЮВ 1 н/о н/о +12.0 +9.0 82 +13 +13 1017.3 1011.7
23 21.05 ЮВ 3 н/о н/о +16.3 +9.5 64 +16 +16 1018.4 1012.8
00 22.05 СВ 4 н/о н/о +19.5 +8.8 50 +20 +20 1018.3 1012.7
02 22.05 С 4 н/о н/о +26.5 +6.5 28 +26 +26 жарко 1017.4 1011.8 +12.0
03 22.05 С 6 н/о н/о +27.9 +7.7 28 +27 +27 жарко 1016.4 1010.8
05 22.05 С 5 н/о н/о +29.7 +2.9 18 +28 +28 жарко 1014.9 1009.4
06 22.05 С 5 н/о н/о +30.0 +2.3 17 +28 +28 жарко 1014.5 1009.0
08 22.05 СЗ 3 н/о н/о +26.7 +2.6 21 +25 +25 комфорт 1015.1 1009.6
09 22.05 СЗ 3 н/о н/о +24.5 +3.2 25 +24 +24 комфорт 1015.6 1010.1
11 22.05 С 3 н/о н/о +19.8 +7.2 44 +21 +21 комфорт 1016.6 1011.0
12 22.05 СЗ 3 н/о н/о +19.2 +4.9 39 +20 +20 1016.8 1011.2
14 22.05 С 3 н/о н/о +16.2 +7.7 57 +16 +16 1016.9 1011.3 +30.5
15 22.05 С 3 н/о н/о +15.9 +6.3 53 +16 +16 1016.3 1010.7
17 22.05 СВ 3 н/о н/о +14.7 +6.3 57 +14 +14 1015.3 1009.8
18 22.05 СВ 3 н/о н/о +14.1 +4.9 54 +13 +13 1015.2 1009.7
20 22.05 СВ 3 н/о н/о +14.6 +4.0 49 +14 +14 1016.3 1010.7
21 22.05 СВ 4 н/о н/о +14.3 +4.0 50 +13 +13 1016.9 1011.3
23 22.05 С 2 н/о н/о +20.1 +3.8 34 +21 +21 комфорт 1018.3 1012.7
00 23.05 штиль 0 н/о н/о +23.6 +3.5 27 +23 +23 комфорт 1018.9 1013.3
02 23.05 СЗ 2 н/о н/о +29.3 +4.0 20 +27 +27 жарко 1017.9 1012.3 +13.8
03 23.05 З 5 н/о н/о +29.2 +2.5 18 +27 +27 жарко 1017.3 1011.7
05 23.05 ЮЗ 4 н/о н/о +30.5 +1.9 16 +28 +28 жарко 1016.2 1010.6
06 23.05 ЮЗ 4 н/о н/о +30.7 +1.1 15 +28 +28 жарко 1015.9 1010.4
08 23.05 Ю 3 н/о н/о +28.0 +2.2 19 +26 +26 жарко 1016.6 1011.0
09 23.05 Ю 2 н/о н/о +26.3 +4.7 25 +25 +25 комфорт 1017.2 1011.6
11 23.05 ЮЗ 5 н/о н/о +21.9 +4.5 32 +22 +22 комфорт 1018.8 1013.2
12 23.05 Ю 5 н/о н/о +21.5 +6.2 37 +22 +22 комфорт 1019.4 1013.8
14 23.05 Ю 6 н/о н/о +20.1 +5.7 39 +21 +21 комфорт 1019.8 1014.2 +31.4
15 23.05 Ю 6 н/о н/о +19.2 +5.6 41 +19 +19 1019.6 1014.0
17 23.05 Ю 6 н/о н/о +17.4 +6.3 48 +17 +17 1019.9 1014.3
18 23.05 Ю 5 н/о н/о +16.2 +6.1 51 +15 +15 1020.2 1014.6
20 23.05 Ю 5 н/о н/о +14.7 +5.0 52 +13 +13 1020.9 1015.3
21 23.05 Ю 4 н/о н/о +14.4 +4.1 50 +13 +13 1021.8 1016.2
23 23.05 ЮВ 5 н/о н/о +16.6 +4.3 44 +16 +16 1023.1 1017.5
00 24.05 ЮВ 7 н/о н/о +18.7 +3.3 36 +18 +18 1023.2 1017.6
02 24.05 Ю 6 н/о н/о +21.7 +2.4 28 +22 +22 комфорт 1022.1 1016.5 +14.3
03 24.05 Ю 5 н/о н/о +22.9 +1.9 25 +22 +22 комфорт 1021.1 1015.5

 

Местоположение метеостанции Birdsville Airport (Квинсленд, Австралия): широта -25.90 долгота 139.35 высота над уровнем моря 47 м.

В архиве по умолчанию представлена погода в Birdsville Airport за последнюю неделю. Архивные данные за месяц целиком и за предыдущие месяцы, начиная с января 2011 года, Вы можете получить, выбрав интересующий диапазон дат из раскрывающегося списка и нажав кнопку "Ввод!".

Внимание! Время в таблицах - всемирное. Для получения местного времени необходимо прибавить поправку, которая в Birdsville Airport равна 10 ч.

Смотрите также архив погоды в соседних городах и на ближайших метеорологических станциях:

Погода в Moomba Airport (Южная Австралия, Австралия) (259 км)
Погода в Ballera Gas Field (Квинсленд, Австралия) (298 км)
Погода в Oodnadatta Airport (Южная Австралия, Австралия) (429 км)
Погода в Marree Aero (Южная Австралия, Австралия) (437 км)
Погода в Phosphate Hill Airport (Квинсленд, Австралия) (460 км)
Погода в Jervois (Северная территория, Австралия) (461 км)
Погода в Tibooburra Airport (Новый Южный Уэльс, Австралия) (476 км)
Погода в Trepell Airport (Квинсленд, Австралия) (479 км)
Погода в Thargomindah Airport (Квинсленд, Австралия) (499 км)
Погода в Leigh Creek Airport (Южная Австралия, Австралия) (531 км)

Пояснения к столбцам:

Ветер - указаны скорость ветра в м/с - средняя за 10 мин, порывы в срок и между сроками (в фигурных скобках) и направление, откуда дует ветер: С - северный, СВ - северо-восточный, В - восточный, ЮВ - юго-восточный, Ю - южный, ЮЗ - юго-западный, З - западный, СЗ - северо-западный.
Видимость - горизонтальная дальность видимости в метрах или километрах. При видимости от 1 до 10 км при отсутствии осадков обычно наблюдается дымка, при ухудшении видимости до 1 км и менее - туман. В сухую погоду видимость может ухудшаться дымом, пылью или мглою.
Явления - указаны атмосферные явления, наблюдавшиеся в срок или в последний час перед сроком; фигурными скобками обозначены явления, наблюдавшиеся между сроками (за 1-3 часа до срока); квадратными скобками обозначены град или гололедные отложения с указанием их диаметра в мм.
Облачность - указаны через наклонную черту общая и нижняя облачность в баллах и высота нижней границы облаков в метрах; квадратными скобками обозначены формы облаков: Ci - перистые, Cs - перисто-слоистые, Cc - перисто-кучевые, Ac - высококучевые, As - высокослоистые, Sc - слоисто-кучевые, Ns - слоисто-дождевые, Cu - кучевые, Cb - кучево-дождевые. Подробнее классификацию облаков см. в Атласе облаков (PDF).
T - Температура воздуха - температура, измеренная на высоте 2 м над землей.
Td - Температура точки росы - температура, при понижении до которой содержащийся в воздухе водяной пар достигнет насыщения.
f - Относительная влажность воздуха - влажноcть воздуха, измеренная на высоте 2 м над землей.
Te - Эффективная температура - температура, которую ощущает одетый по сезону человек в тени. Характеристика душности погоды. При расчете учитывается влияние влажности воздуха и скорости ветра на теплоощущения человека.
Tes - Эффективная температура на солнце - температура, которую ощущает человек, с поправкой на солнечный нагрев. Характеристика знойности погоды. Зависит от высоты солнца над горизонтом, облачности и скорости ветра. Ночью, в пасмурную погоду, а также при ветре 12 м/с и более поправка равна нулю.
P - Атмосферное давление - приведенное к уровню моря атмосферное давление.
Po - Атмосферное давление - измеренное на уровне метеостанции атмосферное давление.
Tmin - Минимальная температура - минимум температуры воздуха на высоте 2 м над землей.
Tmax - Максимальная температура - максимум температуры воздуха на высоте 2 м над землей.
R - Количество осадков - Количество выпавших осадков за период времени, мм. При наведении курсора мыши на число - период времени, за который выпало указанное количество осадков.
R24 - Количество осадков - Количество выпавших осадков за 24 часа, мм.
S - Снежный покров - Высота снежного покрова, см. При наведении курсора мыши на число - состояние снежного покрова и степень покрытия местности в баллах.